KJ4HF Weather Reports


time (UTC)temp
F
wind
direction
speed
knots
gust
knots
rain 1hr
in
rain 24hr
in
rain mn
in
humidity
%
barometer
mb
20260510190542 81 156 1.7 7.0 0.00 0.00 0.00 29 1015.6
20260510190046 80 219 2.6 7.0 0.00 0.00 0.00 29 1015.6
20260510185542 81 232 0.0 4.3 0.00 0.00 0.00 29 1015.5
20260510185043 81 132 1.7 4.3 0.00 0.00 0.00 30 1015.6
20260510184552 80 342 0.9 6.1 0.00 0.00 0.00 29 1015.7
20260510184043 80 176 2.6 6.1 0.00 0.00 0.00 31 1015.7
20260510183543 79 253 0.9 3.5 0.00 0.00 0.00 29 1015.7
20260510183049 80 142 0.9 3.5 0.00 0.00 0.00 33 1015.8
20260510182543 79 128 0.9 6.1 0.00 0.00 0.00 32 1015.7
20260510182042 80 84 1.7 6.1 0.00 0.00 0.00 35 1015.8
20260510181552 80 109 0.9 7.0 0.00 0.00 0.00 31 1015.9
20260510181044 79 0 2.6 7.0 0.00 0.00 0.00 31 1016.0
20260510180543 79 200 2.6 6.1 0.00 0.00 0.00 31 1016.0
20260510180056 80 246 2.6 6.1 0.00 0.00 0.00 31 1015.9
20260510175542 80 5 1.7 6.1 0.00 0.00 0.00 31 1015.9
20260510175042 80 270 2.6 6.1 0.00 0.00 0.00 30 1016.0
20260510174550 80 252 0.0 6.1 0.00 0.00 0.00 34 1016.1
20260510174043 80 148 1.7 6.1 0.00 0.00 0.00 32 1016.1
20260510173543 80 217 0.9 7.0 0.00 0.00 0.00 33 1016.2
20260510173054 79 85 1.7 7.8 0.00 0.00 0.00 32 1016.2
20260510172540 79 205 3.5 7.8 0.00 0.00 0.00 31 1016.2
20260510172040 79 145 1.7 5.2 0.00 0.00 0.00 35 1016.2
20260510171559 79 182 0.9 4.3 0.00 0.00 0.00 31 1016.4
20260510171044 79 0 1.7 4.3 0.00 0.00 0.00 35 1016.5
20260510170541 79 312 1.7 4.3 0.00 0.00 0.00 31 1016.4
20260510170114 79 319 0.9 4.3 0.00 0.00 0.00 32 1016.3
20260510165543 79 84 1.7 5.2 0.00 0.00 0.00 35 1016.5
20260510165044 79 328 1.7 5.2 0.00 0.00 0.00 32 1016.3
20260510164600 79 59 1.7 6.1 0.00 0.00 0.00 32 1016.5
20260510164040 79 50 1.7 6.1 0.00 0.00 0.00 34 1016.4
20260510163544 79 82 0.9 3.5 0.00 0.00 0.00 33 1016.3
20260510163049 78 34 0.9 3.5 0.00 0.00 0.00 42 1016.4
20260510162544 78 95 0.9 5.2 0.00 0.00 0.00 37 1016.5
20260510162044 78 240 0.9 5.2 0.00 0.00 0.00 35 1016.5
20260510161550 79 9 1.7 5.2 0.00 0.00 0.00 36 1016.6
20260510161044 78 107 0.9 7.0 0.00 0.00 0.00 37 1016.5
20260510160547 77 114 1.7 7.0 0.00 0.00 0.00 38 1016.6
20260510160051 78 95 1.7 7.0 0.00 0.00 0.00 37 1016.5
20260510155544 78 105 0.9 4.3 0.00 0.00 0.00 43 1016.5
20260510155043 77 0 0.0 5.2 0.00 0.00 0.00 42 1016.5
20260510154550 77 0 0.9 7.0 0.00 0.00 0.00 43 1016.6
20260510154044 77 0 0.9 7.0 0.00 0.00 0.00 46 1016.7
20260510153542 76 57 1.7 6.1 0.00 0.00 0.00 43 1016.6
20260510153054 76 109 1.7 6.1 0.00 0.00 0.00 42 1016.6
20260510152542 76 46 0.9 4.3 0.00 0.00 0.00 43 1016.7
20260510152044 76 93 0.9 6.1 0.00 0.00 0.00 47 1016.7
20260510151552 75 99 0.9 6.1 0.00 0.00 0.00 50 1016.7
20260510151042 76 30 0.9 4.3 0.00 0.00 0.00 50 1016.7
20260510150544 75 22 0.0 4.3 0.00 0.00 0.00 55 1016.8
20260510150052 74 57 0.9 4.3 0.00 0.00 0.00 47 1016.9
20260510145542 74 84 0.0 3.5 0.00 0.00 0.00 52 1016.9
20260510145042 75 52 0.9 5.2 0.00 0.00 0.00 52 1016.8
20260510144550 74 65 1.7 6.1 0.00 0.00 0.00 52 1016.8
20260510144046 73 350 0.9 7.0 0.00 0.00 0.00 52 1016.8
20260510143542 74 94 1.7 7.0 0.00 0.00 0.00 52 1016.8
20260510143052 74 67 0.0 4.3 0.00 0.00 0.00 59 1016.8
20260510142543 73 174 0.9 4.3 0.00 0.00 0.00 59 1016.8
20260510142043 73 68 0.0 3.5 0.00 0.00 0.00 53 1016.6
20260510141550 72 218 0.9 3.5 0.00 0.00 0.00 57 1016.8
20260510141043 72 153 0.9 3.5 0.00 0.00 0.00 59 1016.7
20260510140543 72 99 0.9 3.5 0.00 0.00 0.00 58 1016.7
20260510140050 72 89 0.0 3.5 0.00 0.00 0.00 67 1016.6
20260510135542 72 0 0.9 2.6 0.00 0.00 0.00 69 1016.6
20260510135044 71 0 0.9 4.3 0.00 0.00 0.00 66 1016.7
20260510134556 71 321 0.9 4.3 0.00 0.00 0.00 65 1016.7
20260510134043 70 115 0.0 2.6 0.00 0.00 0.00 67 1016.6
20260510133542 70 109 0.9 2.6 0.00 0.00 0.00 72 1016.6
20260510133051 69 62 0.0 2.6 0.00 0.00 0.00 75 1016.5
20260510132542 68 66 0.9 2.6 0.00 0.00 0.00 75 1016.6
20260510132044 69 5 0.0 2.6 0.00 0.00 0.00 77 1016.6
20260510131559 67 5 0.0 2.6 0.00 0.00 0.00 80 1016.7
20260510131042 67 5 0.9 3.5 0.00 0.00 0.00 78 1016.6
20260510130542 67 0 0.0 3.5 0.00 0.00 0.00 79 1016.6
20260510130054 66 211 0.0 2.6 0.00 0.00 0.00 82 1016.6
20260510125543 66 340 0.0 3.5 0.00 0.00 0.00 83 1016.6
20260510125043 66 339 0.0 3.5 0.00 0.00 0.00 84 1016.6
20260510124605 65 241 0.0 1.7 0.00 0.00 0.00 88 1016.4
20260510124045 64 0 0.0 2.6 0.00 0.00 0.00 90 1016.5
20260510123543 63 233 0.0 2.6 0.00 0.00 0.00 91 1016.5
20260510123053 63 0 0.0 1.7 0.00 0.00 0.00 91 1016.4
20260510122543 62 221 0.0 0.9 0.00 0.00 0.00 95 1016.1
20260510122043 61 0 0.0 0.9 0.00 0.00 0.00 96 1016.1
20260510121551 61 0 0.0 0.9 0.00 0.00 0.00 97 1016.0
20260510121043 60 221 0.0 0.9 0.00 0.00 0.00 97 1015.9
20260510120543 59 0 0.0 0.9 0.00 0.00 0.00 97 1015.8
20260510120054 58 0 0.0 0.0 0.00 0.00 0.00 97 1015.8
20260510115542 58 0 0.0 0.0 0.00 0.00 0.00 97 1015.7
20260510115042 58 0 0.0 0.0 0.00 0.00 0.00 97 1015.7
20260510114552 57 0 0.0 0.0 0.00 0.00 0.00 97 1015.5
20260510114044 56 0 0.0 0.0 0.00 0.00 0.00 97 1015.4
20260510113544 55 0 0.0 0.0 0.00 0.00 0.00 97 1015.3
20260510113053 55 0 0.0 0.9 0.00 0.00 0.00 96 1015.2
20260510112543 54 0 0.0 0.9 0.00 0.00 0.00 96 1015.0
20260510112043 54 220 0.0 0.9 0.00 0.00 0.00 96 1015.0
20260510111549 54 0 0.0 0.0 0.00 0.00 0.00 96 1015.0
20260510111041 54 0 0.0 0.0 0.00 0.00 0.00 96 1014.8
20260510110542 54 0 0.0 0.0 0.00 0.00 0.00 96 1014.9
20260510110052 53 0 0.0 0.0 0.00 0.00 0.00 96 1014.7
20260510105543 53 0 0.0 0.0 0.00 0.00 0.00 96 1014.7
20260510105043 53 0 0.0 0.9 0.00 0.00 0.00 96 1014.6
20260510104556 54 0 0.0 0.9 0.00 0.00 0.00 96 1014.5
20260510104042 54 0 0.0 0.0 0.00 0.00 0.00 96 1014.4
20260510103542 54 0 0.0 0.0 0.00 0.00 0.00 96 1014.4
20260510103050 54 0 0.0 0.0 0.00 0.00 0.00 96 1014.3
20260510102543 54 0 0.0 0.0 0.00 0.00 0.00 96 1014.2
20260510102043 54 0 0.0 0.0 0.00 0.00 0.00 96 1014.3
20260510101551 54 0 0.0 0.9 0.00 0.00 0.00 96 1014.2
20260510101042 54 0 0.0 0.9 0.00 0.00 0.00 96 1014.1
20260510100544 54 0 0.0 0.9 0.00 0.00 0.00 96 1014.2
20260510095544 54 0 0.0 0.0 0.00 0.00 0.00 96 1014.0
20260510095041 54 0 0.0 0.0 0.00 0.00 0.00 96 1014.0
20260510094601 54 0 0.0 0.0 0.00 0.00 0.00 96 1013.9
20260510094043 54 0 0.0 0.0 0.00 0.00 0.00 96 1013.9
20260510093543 55 0 0.0 0.0 0.00 0.00 0.00 96 1013.8
20260510093053 55 0 0.0 0.0 0.00 0.00 0.00 96 1013.8
20260510092544 55 0 0.0 0.0 0.00 0.00 0.00 96 1013.8
20260510092042 55 0 0.0 0.0 0.00 0.00 0.00 96 1013.8
20260510091559 55 0 0.0 0.0 0.00 0.00 0.00 96 1013.7
20260510091042 55 0 0.0 0.0 0.00 0.00 0.00 96 1013.6
20260510090545 55 0 0.0 0.0 0.00 0.00 0.00 96 1013.6
20260510090050 55 0 0.0 0.0 0.00 0.00 0.00 96 1013.6
20260510085542 55 0 0.0 0.0 0.00 0.00 0.00 96 1013.5
20260510085049 55 0 0.0 0.0 0.00 0.00 0.00 96 1013.5
20260510084553 56 0 0.0 0.0 0.00 0.00 0.00 96 1013.3
20260510084043 56 0 0.0 0.0 0.00 0.00 0.00 96 1013.2
20260510083542 56 0 0.0 0.0 0.00 0.00 0.00 96 1013.1
20260510083103 56 0 0.0 0.0 0.00 0.00 0.00 96 1013.2
20260510082543 56 0 0.0 0.0 0.00 0.00 0.00 96 1013.1
20260510082044 56 0 0.0 0.0 0.00 0.00 0.00 96 1013.1
20260510081559 57 0 0.0 0.0 0.00 0.00 0.00 96 1013.2
20260510081045 57 0 0.0 0.0 0.00 0.00 0.00 96 1013.1
20260510080543 57 0 0.0 0.0 0.00 0.00 0.00 96 1013.0
20260510080053 57 0 0.0 0.9 0.00 0.00 0.00 96 1013.0
20260510075543 57 0 0.0 0.9 0.00 0.00 0.00 96 1013.0
20260510075047 57 0 0.0 0.9 0.00 0.00 0.00 96 1012.8
20260510074556 57 0 0.0 0.0 0.00 0.00 0.00 96 1012.9
20260510074042 57 0 0.0 0.0 0.00 0.00 0.00 96 1012.9
20260510073542 57 0 0.0 0.0 0.00 0.00 0.00 96 1012.7
20260510073105 57 0 0.0 0.0 0.00 0.00 0.00 95 1012.7
20260510072544 57 0 0.0 0.0 0.00 0.00 0.00 95 1012.5
20260510072043 57 0 0.0 0.0 0.00 0.00 0.00 95 1012.6
20260510071548 57 0 0.0 0.0 0.00 0.00 0.00 95 1012.6
20260510071043 57 0 0.0 0.0 0.00 0.00 0.00 95 1012.5
20260510070543 58 0 0.0 0.0 0.00 0.00 0.00 95 1012.5
20260510070051 58 0 0.0 0.0 0.00 0.00 0.00 95 1012.3
20260510065546 58 0 0.0 0.0 0.00 0.00 0.00 95 1012.3
20260510065042 58 0 0.0 0.0 0.00 0.00 0.00 95 1012.3
20260510064551 58 0 0.0 0.0 0.00 0.00 0.00 95 1012.4
20260510064042 58 0 0.0 0.0 0.00 0.00 0.00 95 1012.4
20260510063543 58 0 0.0 0.0 0.00 0.00 0.00 95 1012.5
20260510063052 58 0 0.0 0.0 0.00 0.00 0.00 95 1012.5
20260510062543 58 0 0.0 0.0 0.00 0.00 0.00 95 1012.7
20260510062045 58 0 0.0 0.0 0.00 0.00 0.00 95 1012.5
20260510061549 58 0 0.0 0.0 0.00 0.00 0.00 95 1012.5
20260510061043 58 0 0.0 0.0 0.00 0.00 0.00 95 1012.6
20260510060543 58 0 0.0 0.0 0.00 0.00 0.00 95 1012.6
20260510060048 58 0 0.0 0.0 0.00 0.00 0.00 95 1012.5
20260510055542 58 0 0.0 0.0 0.00 0.00 0.00 95 1012.6
20260510055042 58 0 0.0 0.0 0.00 0.00 0.00 95 1012.7
20260510054546 58 0 0.0 0.0 0.00 0.00 0.00 95 1012.7
20260510054044 58 0 0.0 0.0 0.00 0.00 0.00 95 1012.6
20260510053543 58 0 0.0 0.0 0.00 0.00 0.00 94 1012.6
20260510053049 58 0 0.0 0.0 0.00 0.00 0.00 94 1012.5
20260510052543 58 0 0.0 0.0 0.00 0.00 0.00 94 1012.7
20260510052042 58 0 0.0 0.0 0.00 0.00 0.00 95 1012.6
20260510051555 59 0 0.0 0.0 0.00 0.00 0.00 95 1012.7
20260510051043 59 0 0.0 0.0 0.00 0.00 0.00 95 1012.9
20260510050544 59 0 0.0 0.0 0.00 0.00 0.00 95 1012.8
20260510050052 59 0 0.0 0.0 0.00 0.00 0.00 95 1012.9
20260510045544 59 0 0.0 0.0 0.00 0.00 0.00 95 1013.0
20260510045044 59 0 0.0 0.0 0.00 0.00 0.00 94 1012.8
20260510044550 59 0 0.0 0.0 0.00 0.00 0.00 94 1012.8
20260510044043 59 0 0.0 0.0 0.00 0.00 0.00 94 1012.9
20260510043543 59 0 0.0 0.0 0.00 0.00 0.00 94 1012.9
20260510043051 60 0 0.0 0.0 0.00 0.00 0.00 94 1012.9
20260510042543 59 0 0.0 0.0 0.00 0.00 0.00 94 1013.0
20260510042042 60 0 0.0 0.9 0.00 0.00 0.00 94 1013.1
20260510041553 60 0 0.0 0.9 0.00 0.00 0.00 93 1013.0
20260510041042 60 0 0.0 0.9 0.00 0.00 0.00 93 1012.9
20260510040546 60 220 0.0 0.9 0.00 0.00 0.00 93 1012.8
20260510040055 60 0 0.0 0.9 0.00 0.00 0.00 93 1013.1
20260510035543 60 0 0.0 1.7 0.00 0.00 0.00 93 1013.1
20260510035043 60 0 0.0 1.7 0.00 0.00 0.00 93 1012.9
20260510034551 60 0 0.0 0.9 0.00 0.00 0.00 93 1013.0
20260510034044 60 0 0.0 0.9 0.00 0.00 0.00 92 1013.1
20260510033544 60 0 0.0 0.0 0.00 0.00 0.00 92 1013.0
20260510033057 60 0 0.0 0.0 0.00 0.00 0.00 92 1012.9
20260510032543 60 0 0.0 0.0 0.00 0.00 0.00 92 1012.9
20260510032043 60 0 0.0 0.0 0.00 0.00 0.00 91 1012.9
20260510031546 60 0 0.0 0.0 0.00 0.00 0.00 92 1012.8
20260510031043 60 0 0.0 0.0 0.00 0.00 0.00 92 1012.7
20260510030543 60 0 0.0 3.5 0.00 0.00 0.00 92 1012.8
20260510030054 60 0 0.0 3.5 0.00 0.00 0.00 92 1012.8
20260510025543 60 0 0.0 0.9 0.00 0.00 0.00 93 1012.8
20260510025043 60 0 0.0 0.9 0.00 0.00 0.00 93 1012.8
20260510024549 60 0 0.0 0.0 0.00 0.00 0.00 92 1012.7
20260510024042 60 0 0.0 0.0 0.00 0.00 0.00 92 1012.7
20260510023542 60 0 0.0 0.0 0.00 0.00 0.00 91 1012.7
20260510023051 60 0 0.0 0.0 0.00 0.00 0.00 91 1012.7
20260510022542 60 0 0.0 0.0 0.00 0.00 0.00 92 1012.6
20260510022042 60 0 0.0 0.0 0.00 0.00 0.00 92 1012.7
20260510021556 60 0 0.0 0.0 0.00 0.00 0.00 92 1012.7
20260510021041 60 0 0.0 0.0 0.00 0.00 0.00 92 1012.7
20260510020542 60 0 0.0 0.0 0.00 0.00 0.00 92 1012.5
20260510020057 60 0 0.0 0.0 0.00 0.00 0.00 91 1012.5
20260510015542 60 0 0.0 0.0 0.00 0.00 0.00 91 1012.4
20260510015043 61 0 0.0 0.0 0.00 0.00 0.00 91 1012.4
20260510014553 61 0 0.0 0.0 0.00 0.00 0.00 90 1012.4
20260510014045 61 0 0.0 0.0 0.00 0.00 0.00 90 1012.4
20260510013543 61 0 0.0 0.0 0.00 0.00 0.00 90 1012.3
20260510013055 62 0 0.0 0.0 0.00 0.00 0.00 90 1012.1
20260510012543 62 0 0.0 0.0 0.00 0.00 0.00 90 1012.2
20260510012047 62 0 0.0 0.0 0.00 0.00 0.00 89 1012.2
20260510011550 62 0 0.0 0.0 0.00 0.00 0.00 89 1011.9
20260510011043 62 0 0.0 0.0 0.00 0.00 0.00 88 1012.0
20260510010542 62 0 0.0 0.0 0.00 0.00 0.00 88 1011.9
20260510010049 62 0 0.0 0.0 0.00 0.00 0.00 88 1011.9
20260510005542 63 0 0.0 0.0 0.00 0.00 0.00 87 1011.6
20260510005043 63 0 0.0 0.0 0.00 0.00 0.00 87 1011.6
20260510004551 63 0 0.0 0.0 0.00 0.00 0.00 86 1011.4
20260510004043 63 0 0.0 0.0 0.00 0.00 0.00 86 1011.4
20260510003541 64 0 0.0 0.0 0.00 0.00 0.00 84 1011.3
20260510003101 64 0 0.0 0.0 0.00 0.00 0.00 84 1011.2
20260510002539 65 0 0.0 0.0 0.00 0.00 0.00 83 1011.3
20260510002042 65 0 0.0 0.0 0.00 0.00 0.00 83 1011.1
20260510001549 65 0 0.0 0.0 0.00 0.00 0.00 83 1011.0
20260510001040 65 0 0.0 0.0 0.00 0.00 0.00 82 1011.1
20260510000547 66 0 0.0 0.0 0.00 0.00 0.00 81 1011.0
20260510000053 66 0 0.0 0.0 0.00 0.00 0.00 80 1010.9
20260509235543 67 0 0.0 0.0 0.00 0.00 0.00 78 1010.9
20260509235041 67 0 0.0 0.0 0.00 0.00 0.00 78 1010.8
20260509234549 68 0 0.0 0.0 0.00 0.00 0.00 77 1010.8
20260509234043 68 0 0.0 2.6 0.00 0.00 0.00 75 1010.8
20260509233542 68 0 0.0 3.5 0.00 0.00 0.00 74 1010.7
20260509233049 69 203 0.9 3.5 0.00 0.00 0.00 73 1010.8
20260509232546 69 0 1.7 3.5 0.00 0.00 0.00 74 1010.7
20260509232040 69 0 1.7 4.3 0.00 0.00 0.00 72 1010.8
20260509231556 69 200 1.7 5.2 0.00 0.00 0.00 72 1010.9
20260509231040 70 169 0.9 5.2 0.00 0.00 0.00 72 1010.8
20260509230543 70 167 1.7 6.1 0.00 0.00 0.00 71 1010.9
20260509230053 70 249 2.6 6.1 0.00 0.00 0.00 70 1010.7
20260509225540 70 199 0.9 6.1 0.00 0.00 0.00 70 1010.6
20260509225042 71 196 1.7 6.1 0.00 0.00 0.00 69 1010.5
20260509224556 71 231 2.6 7.0 0.00 0.00 0.00 68 1010.7
20260509224044 71 169 2.6 7.0 0.00 0.00 0.00 68 1010.6
20260509223543 71 223 3.5 8.7 0.00 0.00 0.00 67 1010.3
20260509223053 71 190 3.5 8.7 0.00 0.00 0.00 67 1010.2
20260509222542 71 206 2.6 7.0 0.00 0.00 0.00 67 1010.1
20260509222042 71 211 3.5 7.8 0.00 0.00 0.00 66 1010.2
20260509221550 72 229 3.5 7.8 0.00 0.00 0.00 65 1010.1
20260509221040 72 188 3.5 7.8 0.00 0.00 0.00 65 1010.1
20260509220546 72 0 2.6 6.1 0.00 0.00 0.00 65 1010.2
20260509220049 72 212 1.7 10.4 0.00 0.00 0.00 67 1010.2
20260509215543 72 188 3.5 10.4 0.00 0.00 0.00 64 1010.2
20260509215041 72 240 2.6 7.0 0.00 0.00 0.00 68 1010.0
20260509214545 72 232 1.7 9.6 0.00 0.00 0.00 65 1010.1
20260509214047 72 221 3.5 9.6 0.00 0.00 0.00 66 1010.3
20260509213540 72 172 4.3 9.6 0.00 0.00 0.00 65 1010.2
20260509213049 73 233 1.7 7.8 0.00 0.00 0.00 66 1010.3
20260509212539 72 221 3.5 8.7 0.00 0.00 0.00 67 1010.2
20260509212042 72 283 4.3 8.7 0.00 0.00 0.00 65 1010.1
20260509211547 72 170 1.7 8.7 0.00 0.00 0.00 65 1009.9
20260509211042 73 165 1.7 7.8 0.00 0.00 0.00 64 1010.0
20260509210543 72 200 2.6 9.6 0.00 0.00 0.00 67 1009.9
20260509210058 72 196 3.5 9.6 0.00 0.00 0.00 65 1010.0
20260509205544 72 204 2.6 7.0 0.00 0.00 0.00 67 1010.2
20260509205043 73 195 0.9 7.0 0.00 0.00 0.00 64 1010.2
20260509204555 73 202 2.6 7.8 0.00 0.00 0.00 67 1010.0
20260509204042 73 250 2.6 7.8 0.00 0.00 0.00 65 1010.2
20260509203547 73 31 1.7 7.8 0.00 0.00 0.00 65 1010.1
20260509203058 73 142 0.9 8.7 0.00 0.00 0.00 65 1010.2
20260509202543 73 150 2.6 10.4 0.00 0.00 0.00 68 1010.1
20260509202046 72 252 4.3 10.4 0.00 0.00 0.00 67 1010.1
20260509201550 73 329 2.6 9.6 0.00 0.00 0.00 69 1010.2
20260509201042 72 168 2.6 7.8 0.00 0.00 0.00 69 1010.3
20260509200542 71 187 1.7 6.1 0.00 0.00 0.00 71 1010.3
20260509200049 71 260 0.9 5.2 0.00 0.00 0.00 70 1010.3
20260509195542 71 180 0.9 5.2 0.00 0.00 0.00 71 1010.3
20260509195046 71 218 1.7 5.2 0.00 0.00 0.00 71 1010.5
20260509194550 71 141 0.9 5.2 0.00 0.00 0.00 72 1010.5
20260509194039 71 186 1.7 7.0 0.00 0.00 0.00 70 1010.5
20260509193542 72 245 2.6 9.6 0.00 0.00 0.00 70 1010.5
20260509193048 72 281 2.6 9.6 0.00 0.00 0.00 69 1010.5
20260509192542 72 228 1.7 6.1 0.00 0.00 0.00 69 1010.6
20260509192043 71 0 2.6 6.1 0.00 0.00 0.00 70 1010.6
20260509191547 70 257 2.6 6.1 0.00 0.00 0.00 72 1010.8
20260509191042 69 187 0.9 6.1 0.00 0.00 0.00 73 1010.8